N8TWM-13 Weather Reports


time (UTC)temp
C
wind
direction
speed
KPH
gust
KPH
rain 1hr
cm
rain 24hr
cm
rain mn
cm
humidity
%
barometer
mb
20260505114351 14 222 11.3 14.5 0.00 0.03 0.03 83 1006.2
20260505113848 14 218 6.4 9.7 0.00 0.03 0.03 83 1006.1
20260505113345 14 175 3.2 9.7 0.00 0.03 0.03 83 1005.5
20260505112840 14 210 4.8 11.3 0.00 0.03 0.03 83 1005.9
20260505112338 14 198 4.8 8.0 0.00 0.03 0.03 84 1006.1
20260505111833 13 220 4.8 4.8 0.00 0.03 0.03 84 1005.9
20260505111329 13 212 6.4 8.0 0.00 0.03 0.03 84 1006.0
20260505110825 13 221 0.0 0.0 0.00 0.03 0.03 85 1006.2
20260505110323 13 227 0.0 0.0 0.00 0.03 0.03 85 1006.0
20260505101757 15 269 4.8 8.0 0.00 0.00 0.00 78 1006.2
20260505101253 16 177 9.7 14.5 0.00 0.00 0.00 76 1006.2
20260505100749 16 223 1.6 3.2 0.00 0.00 0.00 75 1006.2
20260505100246 16 234 0.0 0.0 0.00 0.00 0.00 75 1005.9
20260505095742 16 203 0.0 0.0 0.00 0.00 0.00 75 1005.9
20260505095240 16 203 3.2 4.8 0.00 0.00 0.00 74 1006.1
20260505094735 16 230 1.6 3.2 0.00 0.00 0.00 74 1006.3
20260505094232 16 273 4.8 4.8 0.00 0.00 0.00 74 1006.2
20260505093728 16 226 3.2 3.2 0.00 0.00 0.00 74 1005.8
20260505093226 16 189 4.8 11.3 0.00 0.00 0.00 74 1006.0
20260505092722 16 222 6.4 9.7 0.00 0.00 0.00 74 1006.1
20260505092221 16 255 0.0 0.0 0.00 0.00 0.00 73 1005.8
20260505091718 16 243 6.4 12.9 0.00 0.00 0.00 73 1006.2
20260505091216 16 231 1.6 1.6 0.00 0.00 0.00 73 1006.0
20260505090713 16 211 4.8 8.0 0.00 0.00 0.00 72 1005.7
20260505090211 17 233 4.8 8.0 0.00 0.00 0.00 72 1006.0
20260505085708 17 214 3.2 4.8 0.00 0.00 0.00 71 1005.7
20260505085207 17 215 6.4 9.7 0.00 0.00 0.00 71 1005.7
20260505084704 17 267 1.6 4.8 0.00 0.00 0.00 71 1005.5
20260505084202 17 217 8.0 12.9 0.00 0.00 0.00 70 1005.5
20260505083659 17 229 8.0 9.7 0.00 0.00 0.00 70 1005.2
20260505083156 17 245 6.4 9.7 0.00 0.00 0.00 69 1005.3
20260505082651 17 236 4.8 9.7 0.00 0.00 0.00 68 1005.3
20260505082149 17 255 0.0 4.8 0.00 0.00 0.00 68 1005.3
20260505081644 18 252 6.4 11.3 0.00 0.00 0.00 67 1005.1
20260505081142 18 205 11.3 16.1 0.00 0.00 0.00 66 1005.0
20260505080639 18 224 3.2 4.8 0.00 0.00 0.00 66 1005.0
20260505080135 18 244 11.3 16.1 0.00 0.00 0.00 65 1005.2
20260505075631 18 203 3.2 4.8 0.00 0.00 0.00 64 1005.2
20260505075128 18 219 11.3 14.5 0.00 0.00 0.00 63 1004.9
20260505074625 18 205 11.3 16.1 0.00 0.00 0.00 64 1005.1
20260505074122 18 221 1.6 4.8 0.00 0.00 0.00 64 1004.9
20260505073620 18 218 9.7 24.1 0.00 0.00 0.00 65 1004.7
20260505073118 19 236 3.2 4.8 0.00 0.00 0.00 62 1004.8
20260505072613 19 222 9.7 12.9 0.00 0.00 0.00 61 1004.5
20260505072110 19 243 8.0 11.3 0.00 0.00 0.00 61 1004.5
20260505071605 19 195 6.4 11.3 0.00 0.00 0.00 61 1004.6
20260505071104 19 237 0.0 1.6 0.00 0.00 0.00 60 1004.4
20260505070600 19 171 8.0 14.5 0.00 0.00 0.00 61 1004.6
20260505070056 19 237 1.6 1.6 0.00 0.00 0.00 61 1004.4
20260505065552 19 225 0.0 0.0 0.00 0.00 0.00 61 1004.2
20260505065049 19 258 8.0 9.7 0.00 0.00 0.00 61 1004.5
20260505064546 19 234 9.7 12.9 0.00 0.00 0.00 61 1004.6
20260505064045 19 205 3.2 8.0 0.00 0.00 0.00 62 1004.4
20260505063542 19 223 4.8 8.0 0.00 0.00 0.00 62 1004.5
20260505063037 19 214 1.6 1.6 0.00 0.00 0.00 61 1004.5
20260505062534 19 222 6.4 8.0 0.00 0.00 0.00 63 1004.7
20260505062032 19 221 0.0 0.0 0.00 0.00 0.00 64 1004.4
20260505061529 19 215 8.0 9.7 0.00 0.00 0.00 64 1004.6
20260505061027 19 220 8.0 11.3 0.00 0.00 0.00 64 1004.8
20260505060524 19 223 14.5 17.7 0.00 0.00 0.00 64 1004.6
20260505060020 19 251 3.2 11.3 0.00 0.00 0.00 64 1004.6
20260505055516 19 210 4.8 12.9 0.00 0.00 0.00 64 1004.7
20260505055013 19 222 0.0 0.0 0.00 0.00 0.00 65 1004.7
20260505054510 19 216 8.0 12.9 0.00 0.00 0.00 64 1004.8
20260505054008 18 222 4.8 11.3 0.00 0.00 0.00 65 1004.7
20260505053505 19 187 4.8 9.7 0.00 0.00 0.00 64 1005.0
20260505053001 18 207 0.0 0.0 0.00 0.00 0.00 65 1005.0
20260505052459 18 223 4.8 4.8 0.00 0.00 0.00 66 1004.9
20260505051956 18 185 6.4 11.3 0.00 0.00 0.00 66 1005.5
20260505051453 18 219 4.8 4.8 0.00 0.00 0.00 66 1005.3
20260505050951 18 225 6.4 9.7 0.00 0.00 0.00 66 1005.1
20260505050449 18 216 0.0 0.0 0.00 0.00 0.00 67 1005.2
20260505041416 18 210 3.2 3.2 0.00 0.00 0.00 70 1005.5
20260505040914 18 224 4.8 9.7 0.00 0.00 0.00 71 1005.5
20260505040411 18 220 4.8 8.0 0.00 0.00 0.00 70 1005.2
20260505035908 18 204 4.8 9.7 0.00 0.00 0.00 71 1005.3
20260505035403 18 222 4.8 4.8 0.00 0.00 0.00 71 1005.3
20260505034901 18 229 8.0 11.3 0.00 0.00 0.00 71 1005.7
20260505034358 18 216 1.6 3.2 0.00 0.00 0.00 71 1005.5
20260505033855 18 209 3.2 8.0 0.00 0.00 0.00 71 1005.7
20260505033351 18 179 6.4 11.3 0.00 0.00 0.00 71 1005.3
20260505032850 18 229 4.8 9.7 0.00 0.00 0.00 71 1005.3
20260505032346 18 212 6.4 9.7 0.00 0.00 0.00 71 1005.5
20260505031843 18 198 0.0 0.0 0.00 0.00 0.00 71 1005.6
20260505031339 18 197 0.0 1.6 0.00 0.00 0.00 71 1005.6
20260505030837 18 212 0.0 1.6 0.00 0.00 0.00 70 1005.5
20260505030332 18 207 3.2 8.0 0.00 0.00 0.00 70 1005.3
20260505025828 18 216 3.2 4.8 0.00 0.00 0.00 70 1005.7
20260505025326 18 206 3.2 8.0 0.00 0.00 0.00 70 1005.6
20260505024824 18 179 1.6 3.2 0.00 0.00 0.00 70 1005.7
20260505024322 18 205 1.6 1.6 0.00 0.00 0.00 71 1005.6
20260505023819 18 187 4.8 8.0 0.00 0.00 0.00 70 1005.6
20260505023315 18 199 3.2 8.0 0.00 0.00 0.00 70 1005.7
20260505022813 18 208 4.8 8.0 0.00 0.00 0.00 70 1005.8
20260505022310 18 205 3.2 3.2 0.00 0.00 0.00 69 1005.5
20260505021807 18 213 4.8 9.7 0.00 0.00 0.00 69 1005.3
20260505021304 18 195 6.4 9.7 0.00 0.00 0.00 69 1005.5
20260505020759 18 191 4.8 9.7 0.00 0.00 0.00 68 1005.5
20260505020254 18 195 4.8 8.0 0.00 0.00 0.00 68 1005.5
20260505015752 18 198 3.2 3.2 0.00 0.00 0.00 68 1005.6
20260505015249 18 190 6.4 9.7 0.00 0.00 0.00 68 1005.5
20260505014746 18 206 1.6 4.8 0.00 0.00 0.00 67 1005.2
20260505014244 18 195 4.8 4.8 0.00 0.00 0.00 67 1005.5
20260505013740 18 184 1.6 1.6 0.00 0.00 0.00 67 1005.6
20260505013237 18 213 3.2 8.0 0.00 0.00 0.00 66 1005.5
20260505012735 18 188 1.6 3.2 0.00 0.00 0.00 66 1005.6
20260505012232 18 181 1.6 1.6 0.00 0.00 0.00 65 1005.3
20260505011728 18 210 1.6 3.2 0.00 0.00 0.00 65 1005.5
20260505011225 18 204 4.8 8.0 0.00 0.00 0.00 65 1005.5
20260505010721 18 218 0.0 0.0 0.00 0.00 0.00 65 1005.6
20260505010217 18 221 1.6 3.2 0.00 0.00 0.00 64 1005.5
20260505005714 18 219 0.0 1.6 0.00 0.00 0.00 65 1005.2
20260505005211 18 211 0.0 0.0 0.00 0.00 0.00 64 1005.3
20260505004708 18 181 3.2 3.2 0.00 0.00 0.00 63 1005.6
20260505004204 18 215 3.2 3.2 0.00 0.00 0.00 63 1005.2
20260505003702 18 219 0.0 0.0 0.00 0.00 0.00 63 1005.6
20260505003200 19 224 0.0 1.6 0.00 0.00 0.00 62 1005.1
20260505002655 19 223 0.0 3.2 0.00 0.00 0.00 61 1005.3
20260505002153 19 225 1.6 3.2 0.00 0.00 0.00 61 1005.1
20260505001650 19 214 1.6 3.2 0.00 0.00 0.00 61 1005.3
20260505001148 20 189 0.0 0.0 0.00 0.00 0.00 61 1005.2
20260505000645 20 213 4.8 8.0 0.00 0.00 0.00 59 1005.0
20260505000143 20 217 11.3 16.1 0.00 0.00 0.00 59 1005.0
20260504235638 20 223 0.0 0.0 0.00 0.00 0.00 59 1005.0
20260504235135 20 239 6.4 22.5 0.00 0.00 0.00 58 1004.8
20260504234633 20 227 9.7 12.9 0.00 0.00 0.00 57 1004.8
20260504234130 21 207 17.7 24.1 0.00 0.00 0.00 56 1004.8
20260504233625 21 175 0.0 0.0 0.00 0.00 0.00 55 1004.5
20260504233121 21 229 0.0 0.0 0.00 0.00 0.00 55 1004.6
20260504232620 21 229 0.0 0.0 0.00 0.00 0.00 54 1004.7
20260504232116 21 217 3.2 4.8 0.00 0.00 0.00 53 1004.5
20260504231613 21 212 3.2 4.8 0.00 0.00 0.00 52 1004.4
20260504231109 21 179 4.8 9.7 0.00 0.00 0.00 53 1004.4
20260504230605 21 268 0.0 0.0 0.00 0.00 0.00 53 1004.6
20260504230104 21 211 3.2 11.3 0.00 0.00 0.00 53 1004.7
20260504225601 22 215 1.6 3.2 0.00 0.00 0.00 52 1004.8
20260504225058 21 217 4.8 8.0 0.00 0.00 0.00 54 1004.8
20260504224555 21 227 6.4 11.3 0.00 0.00 0.00 53 1005.0
20260504224052 21 219 0.0 1.6 0.00 0.00 0.00 53 1004.7
20260504223549 21 218 8.0 11.3 0.00 0.00 0.00 54 1005.0
20260504223044 21 234 0.0 0.0 0.00 0.00 0.00 55 1005.1
20260504222542 21 209 0.0 3.2 0.00 0.00 0.00 55 1005.0
20260504222039 22 213 6.4 11.3 0.00 0.00 0.00 54 1005.0
20260504221536 22 238 4.8 8.0 0.00 0.00 0.00 56 1004.9
20260504221033 21 215 8.0 9.7 0.00 0.00 0.00 56 1004.9
20260504220529 21 218 8.0 14.5 0.00 0.00 0.00 56 1005.2
20260504220026 21 206 12.9 16.1 0.00 0.00 0.00 57 1004.9
20260504215523 22 227 6.4 11.3 0.00 0.00 0.00 56 1004.9
20260504215020 21 173 4.8 4.8 0.00 0.00 0.00 56 1005.0
20260504214516 21 208 12.9 17.7 0.00 0.00 0.00 56 1005.0
20260504214012 21 231 9.7 12.9 0.00 0.00 0.00 56 1005.3
20260504213509 21 214 9.7 11.3 0.00 0.00 0.00 56 1005.2
20260504213007 21 232 6.4 9.7 0.00 0.00 0.00 56 1005.1
20260504212502 21 228 8.0 11.3 0.00 0.00 0.00 56 1005.2
20260504212000 21 192 9.7 16.1 0.00 0.00 0.00 56 1005.0
20260504211456 22 108 12.9 17.7 0.00 0.00 0.00 55 1005.0
20260504210954 22 245 16.1 22.5 0.00 0.00 0.00 53 1005.2
20260504210450 22 271 6.4 8.0 0.00 0.00 0.00 53 1005.0
20260504205947 22 219 1.6 9.7 0.00 0.00 0.00 52 1004.9
20260504205445 23 247 11.3 12.9 0.00 0.00 0.00 52 1004.8
20260504204943 22 211 6.4 12.9 0.00 0.00 0.00 53 1005.0
20260504204441 22 234 4.8 4.8 0.00 0.00 0.00 55 1005.1
20260504203940 22 202 6.4 14.5 0.00 0.00 0.00 55 1004.9
20260504203437 22 240 9.7 16.1 0.00 0.00 0.00 55 1005.5
20260504202933 22 166 3.2 9.7 0.00 0.00 0.00 55 1005.5
20260504202430 22 215 11.3 16.1 0.00 0.00 0.00 54 1005.5
20260504201926 22 226 11.3 20.9 0.00 0.00 0.00 56 1005.6
20260504201424 22 214 0.0 1.6 0.00 0.00 0.00 56 1005.3
20260504200921 21 205 14.5 20.9 0.00 0.00 0.00 55 1005.6
20260504200418 21 226 1.6 8.0 0.00 0.00 0.00 57 1005.6
20260504195915 21 215 8.0 11.3 0.00 0.00 0.00 56 1005.7
20260504195410 22 191 6.4 9.7 0.00 0.00 0.00 55 1005.8
20260504194907 22 230 1.6 1.6 0.00 0.00 0.00 56 1005.8
20260504194403 22 215 11.3 14.5 0.00 0.00 0.00 55 1005.7
20260504193859 22 185 9.7 16.1 0.00 0.00 0.00 56 1005.7
20260504193356 22 216 11.3 16.1 0.00 0.00 0.00 56 1005.8
20260504192855 22 251 6.4 11.3 0.00 0.00 0.00 54 1006.1
20260504192352 22 223 8.0 9.7 0.00 0.00 0.00 53 1006.2
20260504191850 22 261 8.0 12.9 0.00 0.00 0.00 54 1006.2
20260504191348 22 189 6.4 11.3 0.00 0.00 0.00 56 1006.2
20260504190843 22 274 4.8 11.3 0.00 0.00 0.00 55 1006.3
20260504190339 22 215 12.9 16.1 0.00 0.00 0.00 54 1006.4
20260504185836 22 210 12.9 22.5 0.00 0.00 0.00 54 1006.4
20260504185334 21 205 9.7 16.1 0.00 0.00 0.00 55 1006.3
20260504184829 22 181 9.7 14.5 0.00 0.00 0.00 54 1006.4
20260504184326 21 209 0.0 0.0 0.00 0.00 0.00 57 1006.6
20260504183821 21 174 4.8 12.9 0.00 0.00 0.00 56 1006.6
20260504183319 21 215 9.7 12.9 0.00 0.00 0.00 55 1006.5
20260504182817 21 189 11.3 24.1 0.00 0.00 0.00 55 1006.9
20260504182314 21 201 3.2 4.8 0.00 0.00 0.00 57 1007.0
20260504181811 21 186 3.2 4.8 0.00 0.00 0.00 57 1006.8
20260504181308 21 242 11.3 14.5 0.00 0.00 0.00 57 1006.9
20260504180807 21 231 8.0 9.7 0.00 0.00 0.00 57 1006.9
20260504180305 20 222 6.4 8.0 0.00 0.00 0.00 58 1006.8
20260504175803 20 212 4.8 9.7 0.00 0.00 0.00 59 1006.7
20260504175259 20 215 4.8 8.0 0.00 0.00 0.00 58 1006.7
20260504174757 20 170 1.6 9.7 0.00 0.00 0.00 59 1006.8
20260504174255 20 198 6.4 9.7 0.00 0.00 0.00 59 1007.0
20260504173751 20 179 4.8 4.8 0.00 0.00 0.00 59 1007.0
20260504173248 19 200 4.8 9.7 0.00 0.00 0.00 59 1007.4
20260504172745 19 187 3.2 8.0 0.00 0.00 0.00 60 1007.5
20260504172242 20 191 8.0 11.3 0.00 0.00 0.00 58 1007.4
20260504171738 19 222 0.0 1.6 0.00 0.00 0.00 60 1007.2
20260504171235 19 235 3.2 8.0 0.00 0.00 0.00 59 1007.2
20260504170732 18 231 0.0 0.0 0.00 0.00 0.00 61 1007.2
20260504170229 19 200 3.2 9.7 0.00 0.00 0.00 59 1007.4
20260504160147 18 217 3.2 4.8 0.00 0.00 0.00 61 1008.4
20260504151115 17 195 0.0 1.6 0.00 0.00 0.00 59 1008.1
20260504150613 17 202 8.0 12.9 0.00 0.00 0.00 59 1008.1
20260504150109 17 225 0.0 0.0 0.00 0.00 0.00 59 1008.4
20260504141038 15 264 0.0 1.6 0.00 0.00 0.00 60 1008.6
20260504140535 16 225 0.0 0.0 0.00 0.00 0.00 60 1008.7
20260504130459 14 226 0.0 0.0 0.00 0.00 0.00 62 1009.0